Temp
56 60 66 68 69 70 70 69 71 71 72 73 73 73 73 73 73 73 73 73 73 74 74 74 74 74 74 75 75 75 75 75 75 75 75 75 76 76 75 73 74 73 74
58 61 65 67 69 70 68 69 71 70 71 71 72 73 73 73 73 72 72 72 72 73 74 75 74 73 73 73 74 74 74 74 74 73 73 74 74 76 75 73 73 72 74
59 60 60 67 68 69 69 68 69 69 70 71 71 71 72 72 72 71 71 71 71 72 73 73 74 73 72 71 73 73 73 73 72 72 72 68 69 75 75 73 73 74 74
59 60 60 66 68 68 68 68 68 68 69 69 69 69 70 70 71 71 70 69 70 71 72 72 72 72 71 70 71 72 72 71 70 71 70 69 70 74 74 74 74 74 73
58 59 60 65 67 67 67 66 67 67 66 66 67 67 68 68 69 69 69 69 69 70 70 71 71 71 71 71 70 71 71 71 69 69 68 68 67 73 74 74 74 73 72
56 57 59 64 66 66 66 66 65 66 65 64 65 64 65 66 67 67 68 68 68 68 68 69 69 70 69 69 70 70 69 70 71 68 66 69 67 73 74 74 73 72 71
53 55 56 62 63 63 63 65 64 63 63 63 63 62 62 63 63 64 65 66 67 67 67 67 67 68 68 68 68 68 68 67 68 67 66 67 68 73 74 74 73 72 72
51 53 54 57 60 61 61 62 62 62 61 61 60 60 60 61 61 61 62 63 65 66 66 65 66 66 66 66 66 66 65 64 65 67 66 67 69 74 75 74 73 72 72
50 52 52 52 56 58 59 59 60 60 59 59 58 57 57 57 57 58 59 60 62 63 64 64 64 64 64 64 64 63 63 62 62 67 66 65 69 74 75 73 72 72 71
50 50 50 51 52 52 53 57 58 58 57 56 55 54 53 53 54 55 55 58 60 61 61 62 63 63 62 61 61 61 61 61 64 66 64 64 69 73 74 73 72 71 70
49 47 48 48 50 51 54 54 54 55 55 54 52 52 49 49 50 51 53 55 57 58 59 60 61 60 59 58 58 59 59 59 61 64 63 64 68 71 73 72 71 71 70
43 45 45 47 47 50 56 50 49 52 49 49 47 47 46 47 48 51 51 52 53 54 56 57 58 58 56 54 54 57 56 56 58 62 63 65 68 69 71 71 70 70 70
42 44 45 47 47 46 48 47 45 46 45 46 46 45 45 46 45 46 48 49 49 50 50 52 53 54 52 53 53 53 54 54 55 59 62 64 67 69 70 70 70 70 69
43 44 45 45 47 46 46 45 44 45 44 44 44 44 43 43 43 43 45 47 48 48 48 50 50 52 52 52 52 51 52 52 53 56 56 59 63 67 69 68 70 70 69
42 43 44 45 45 47 46 45 45 43 43 42 43 43 42 41 40 42 43 44 45 47 47 48 48 48 51 51 51 50 50 50 51 52 52 53 57 61 67 68 69 69 69
43 43 44 45 45 45 45 44 44 43 42 42 42 41 42 40 39 40 41 45 44 44 47 46 46 47 50 49 49 49 48 49 50 50 50 50 54 56 60 67 69 69 70
42 43 44 46 44 43 43 43 43 43 43 41 42 41 41 41 39 38 39 42 44 45 45 46 45 46 47 49 48 47 47 47 48 48 48 49 49 52 54 59 67 67 68
41 42 43 46 43 42 42 42 43 43 40 39 41 41 41 40 40 37 37 38 41 43 43 43 44 43 44 47 47 46 45 46 47 47 47 48 48 48 50 54 64 65 66
40 41 41 42 41 41 41 41 41 41 40 39 39 40 40 40 39 37 36 36 38 40 41 42 43 42 41 44 46 46 44 44 45 46 46 46 47 47 47 50 53 59 64
39 39 40 41 40 40 39 39 39 38 39 38 38 39 39 39 38 37 36 36 37 37 39 40 40 42 41 41 43 45 44 44 44 44 44 46 46 46 46 47 47 49 57
38 38 38 38 38 37 36 35 35 35 36 37 38 38 38 38 37 36 35 35 35 35 36 39 40 40 39 40 41 41 44 43 43 43 43 44 45 46 46 46 46 47 49
36 36 37 37 37 37 36 35 35 34 35 35 37 37 37 36 36 36 34 34 34 33 35 37 38 38 40 39 36 38 40 42 43 42 43 43 43 44 45 45 46 46 46
34 34 36 36 36 35 35 35 35 34 34 33 33 33 34 35 35 34 33 33 33 33 33 34 37 37 36 38 38 36 35 37 40 42 41 42 42 42 43 44 45 45 46
33 34 35 35 35 35 34 32 30 28 27 29 30 31 32 33 33 33 32 32 32 33 32 33 37 36 37 35 37 38 37 38 38 37 40 40 41 42 42 43 43 44 45
34 32 32 33 33 32 32 31 28 27 28 28 29 29 29 30 31 31 30 30 30 32 32 32 34 35 36 36 35 35 35 37 41 38 37 38 40 41 42 42 42 43 44
32 31 31 31 30 31 30 29 28 25 26 26 26 26 27 28 28 29 29 29 29 30 31 31 33 34 35 36 37 36 34 33 34 36 37 38 38 40 41 42 42 42 42
MSLP
1025.23 1024.64 1023.94 1023.27 1022.48 1021.74 1021.19 1020.57 1019.86 1019.28 1018.61 1017.99 1017.43 1016.98 1016.59 1016.06 1015.57 1015.10 1014.66 1014.38 1013.74 1013.02 1012.63 1012.08 1011.66 1011.36 1010.79 1010.57 1010.47 1010.38 1010.34 1010.22 1010.21 1010.05 1009.95 1010.10 1010.09 1010.08 1010.36 1010.75 1010.61 1010.69 1010.89
1025.64 1025.04 1024.39 1023.44 1022.58 1021.85 1021.50 1020.86 1020.10 1019.55 1018.91 1018.43 1017.74 1017.30 1016.88 1016.40 1015.98 1015.47 1015.11 1014.54 1014.05 1013.49 1012.92 1012.15 1011.57 1011.10 1011.05 1010.72 1010.46 1010.14 1010.03 1009.93 1009.93 1009.91 1009.81 1009.85 1009.82 1009.83 1010.25 1010.73 1010.69 1010.84 1010.93
1025.78 1025.37 1024.74 1023.74 1022.89 1022.20 1021.78 1021.13 1020.47 1019.79 1019.15 1018.66 1018.19 1017.67 1017.08 1016.70 1016.24 1015.90 1015.38 1014.86 1014.38 1013.79 1013.07 1012.47 1011.82 1011.74 1011.58 1010.90 1010.43 1010.23 1009.98 1009.82 1009.81 1009.74 1009.66 1009.70 1009.72 1009.70 1010.11 1010.53 1010.62 1010.78 1010.99
1026.08 1025.56 1024.96 1024.10 1023.25 1022.68 1022.18 1021.45 1020.89 1020.22 1019.77 1019.31 1018.79 1018.44 1017.73 1017.16 1016.67 1016.21 1015.68 1015.28 1014.56 1013.90 1013.28 1012.66 1012.17 1011.84 1011.56 1011.02 1010.49 1010.23 1009.99 1009.72 1009.30 1009.51 1009.59 1009.65 1009.54 1009.62 1009.91 1010.21 1010.41 1010.64 1010.86
1026.21 1025.70 1025.21 1024.38 1023.60 1022.97 1022.64 1022.11 1021.64 1020.91 1020.51 1020.01 1019.58 1019.00 1018.29 1017.69 1017.17 1016.66 1015.96 1015.51 1014.86 1014.19 1013.58 1012.89 1012.38 1011.83 1011.67 1011.04 1010.56 1010.20 1009.86 1009.28 1008.78 1009.07 1009.44 1009.41 1009.37 1009.42 1009.64 1009.92 1010.10 1010.43 1010.72
1026.61 1026.09 1025.61 1024.72 1024.01 1023.54 1023.20 1022.54 1022.31 1021.63 1021.16 1020.65 1020.15 1019.66 1018.93 1018.32 1017.72 1017.12 1016.43 1015.76 1015.13 1014.51 1014.06 1013.44 1012.67 1011.85 1011.59 1011.13 1010.41 1009.92 1009.63 1009.18 1008.78 1008.83 1008.90 1009.05 1009.22 1009.08 1009.38 1009.64 1009.98 1010.31 1010.61
1026.94 1026.44 1025.90 1025.24 1024.75 1024.44 1024.04 1023.34 1023.03 1022.66 1022.01 1021.42 1020.80 1020.26 1019.64 1018.95 1018.40 1017.60 1016.91 1016.18 1015.36 1014.77 1014.18 1013.58 1012.77 1012.09 1011.46 1010.94 1010.34 1009.55 1009.29 1008.75 1008.39 1008.27 1008.28 1008.44 1008.77 1008.76 1008.93 1009.33 1009.81 1010.16 1010.38
1027.34 1026.88 1026.39 1025.74 1025.40 1025.04 1024.53 1024.02 1023.64 1023.20 1022.69 1022.20 1021.66 1020.86 1020.18 1019.62 1019.11 1018.39 1017.58 1016.86 1015.79 1015.17 1014.48 1013.74 1013.00 1012.14 1011.50 1010.71 1009.86 1009.11 1008.75 1008.33 1007.98 1007.19 1007.58 1007.92 1008.05 1008.23 1008.33 1008.81 1009.43 1009.93 1010.22
1027.56 1027.19 1026.59 1026.38 1025.94 1025.46 1025.00 1024.57 1024.11 1023.75 1023.35 1022.81 1022.40 1021.89 1021.14 1020.29 1019.53 1018.82 1018.22 1017.33 1016.45 1015.60 1014.81 1013.84 1013.20 1012.35 1011.72 1010.98 1010.05 1009.29 1008.53 1007.79 1007.32 1006.18 1006.75 1007.09 1007.47 1007.57 1007.77 1008.35 1009.05 1009.57 1010.02
1027.66 1027.35 1027.04 1026.64 1026.05 1025.67 1025.49 1025.00 1024.61 1024.19 1023.79 1023.33 1022.84 1022.23 1021.54 1021.02 1020.42 1019.64 1018.74 1017.70 1016.90 1016.04 1015.16 1013.98 1013.26 1012.46 1011.77 1011.03 1010.26 1009.25 1008.49 1007.50 1006.09 1005.40 1005.76 1006.66 1006.84 1007.00 1007.10 1007.86 1008.57 1009.14 1009.77
1028.05 1027.98 1027.62 1027.19 1026.56 1026.10 1025.68 1025.39 1025.12 1024.51 1024.16 1023.69 1023.37 1022.82 1022.21 1021.62 1021.01 1020.26 1019.50 1018.50 1017.45 1016.32 1015.51 1014.51 1013.49 1012.72 1012.07 1011.29 1010.45 1009.42 1008.58 1007.64 1006.43 1005.00 1005.01 1005.69 1005.94 1006.66 1006.53 1007.39 1008.13 1008.75 1009.39
1028.71 1028.36 1028.07 1027.50 1027.07 1026.46 1025.89 1025.69 1025.34 1025.03 1024.81 1024.49 1024.03 1023.38 1022.61 1022.11 1021.35 1020.49 1019.92 1019.25 1018.19 1016.90 1015.86 1014.86 1013.95 1012.95 1012.40 1011.66 1010.75 1009.73 1008.90 1008.16 1006.89 1005.24 1004.59 1004.87 1005.40 1006.10 1006.40 1006.87 1007.80 1008.34 1009.09
1029.05 1028.62 1028.32 1027.79 1027.30 1027.02 1026.66 1026.25 1025.87 1025.54 1025.23 1024.81 1024.54 1023.96 1023.20 1022.37 1021.62 1020.89 1020.05 1019.30 1018.60 1017.67 1016.57 1015.42 1014.31 1013.25 1012.66 1012.06 1011.17 1010.41 1009.32 1008.50 1007.26 1005.71 1005.29 1003.81 1004.94 1005.56 1005.70 1006.57 1007.34 1007.80 1008.83
1029.13 1028.84 1028.56 1028.27 1027.87 1027.48 1027.08 1026.65 1026.38 1026.08 1025.76 1025.42 1024.99 1024.37 1023.68 1023.11 1022.37 1021.69 1020.99 1020.15 1019.13 1018.41 1017.43 1016.05 1014.91 1013.64 1012.71 1012.15 1011.62 1010.92 1009.97 1009.00 1008.08 1006.48 1005.84 1004.86 1005.22 1005.62 1005.66 1006.01 1007.04 1007.42 1008.41
1029.29 1029.06 1028.93 1028.61 1028.25 1027.78 1027.41 1027.15 1026.82 1026.59 1026.21 1025.88 1025.50 1024.78 1024.26 1023.58 1023.14 1022.40 1021.59 1020.81 1019.95 1018.83 1017.80 1016.60 1015.47 1014.32 1012.86 1012.28 1011.71 1011.20 1010.40 1009.64 1008.90 1007.60 1007.17 1006.65 1006.19 1006.10 1004.82 1006.18 1006.60 1007.29 1008.16
1029.33 1029.26 1028.99 1028.69 1028.43 1028.12 1027.86 1027.54 1027.14 1026.78 1026.61 1026.24 1025.92 1025.39 1024.63 1024.24 1023.77 1023.10 1022.11 1021.05 1020.41 1019.57 1018.28 1017.29 1016.14 1014.89 1013.39 1012.61 1011.93 1011.31 1010.85 1009.99 1009.61 1008.51 1008.24 1007.95 1007.11 1006.76 1006.58 1005.98 1006.42 1006.98 1007.53
1029.36 1029.34 1029.00 1028.62 1028.64 1028.46 1028.32 1027.86 1027.32 1026.94 1026.52 1026.38 1026.11 1025.47 1025.02 1024.47 1024.14 1023.67 1022.79 1021.67 1020.75 1019.92 1018.75 1017.55 1016.43 1015.22 1014.00 1012.87 1012.22 1011.71 1011.17 1010.50 1009.90 1009.25 1008.82 1008.25 1007.76 1007.69 1006.82 1006.91 1006.15 1006.75 1007.31
1029.49 1029.42 1029.22 1028.94 1028.95 1028.71 1028.47 1028.03 1027.60 1027.28 1027.15 1026.88 1026.35 1025.84 1025.46 1025.03 1024.61 1024.14 1023.44 1022.49 1021.51 1020.35 1019.28 1018.15 1016.91 1015.68 1014.54 1013.23 1012.48 1011.91 1011.34 1010.72 1010.26 1009.82 1009.31 1008.88 1008.45 1008.05 1007.95 1007.65 1005.96 1006.71 1007.23
1029.51 1029.46 1029.38 1029.31 1029.28 1029.07 1028.63 1028.24 1027.93 1027.67 1027.42 1027.36 1026.82 1026.25 1025.91 1025.52 1024.94 1024.47 1023.90 1023.00 1021.95 1020.94 1019.89 1018.81 1017.63 1016.64 1015.28 1013.86 1012.75 1012.04 1011.81 1011.25 1010.79 1010.41 1009.94 1009.57 1009.03 1009.03 1008.87 1008.57 1007.35 1007.18 1007.33
1029.55 1029.57 1029.65 1029.62 1029.54 1029.31 1029.15 1028.62 1028.25 1028.01 1027.96 1027.65 1027.19 1026.71 1026.43 1025.90 1025.35 1024.84 1024.09 1023.37 1022.63 1021.60 1020.51 1019.41 1018.24 1017.11 1016.00 1014.64 1013.36 1012.08 1011.80 1011.57 1011.31 1010.91 1010.63 1010.28 1009.82 1009.54 1009.46 1009.25 1008.35 1008.31 1008.11
1029.66 1029.72 1029.91 1029.96 1029.90 1029.71 1029.58 1029.19 1028.77 1028.61 1028.50 1027.97 1027.61 1027.02 1026.69 1026.46 1025.85 1025.17 1024.51 1023.82 1023.11 1022.26 1021.25 1020.09 1018.83 1017.59 1016.28 1015.54 1013.83 1012.66 1011.72 1011.98 1011.51 1011.67 1011.18 1010.98 1010.48 1010.37 1010.40 1009.97 1009.62 1009.44 1009.20
1029.90 1030.01 1030.04 1030.19 1030.15 1030.11 1029.98 1029.75 1029.35 1029.18 1028.75 1028.48 1027.96 1027.57 1027.31 1026.92 1026.27 1025.64 1025.12 1024.36 1023.69 1022.72 1021.52 1020.50 1019.38 1018.18 1017.31 1016.65 1015.55 1013.43 1012.32 1011.81 1011.78 1011.78 1011.76 1011.79 1011.47 1011.11 1011.09 1010.59 1010.45 1010.33 1010.03
1030.00 1030.06 1030.28 1030.41 1030.40 1030.29 1030.09 1029.86 1029.46 1029.20 1028.78 1028.76 1028.54 1028.38 1028.01 1027.54 1026.83 1026.23 1025.54 1024.94 1024.13 1023.24 1022.21 1021.15 1020.15 1019.09 1017.97 1017.12 1016.57 1015.87 1014.43 1012.94 1012.56 1012.20 1012.32 1012.13 1011.98 1011.64 1011.82 1011.56 1011.20 1011.05 1011.05
1029.95 1030.13 1030.40 1030.59 1030.58 1030.44 1030.54 1030.38 1030.31 1030.14 1029.88 1029.92 1029.46 1029.14 1028.46 1027.89 1027.33 1026.80 1026.07 1025.37 1024.65 1023.72 1022.79 1021.81 1020.75 1019.94 1018.88 1017.64 1016.63 1016.37 1015.85 1015.06 1013.18 1012.77 1012.71 1012.41 1012.02 1012.05 1012.21 1012.05 1011.67 1011.69 1011.74
1029.78 1030.19 1030.52 1030.72 1030.80 1030.78 1030.68 1030.71 1030.58 1030.60 1030.47 1030.20 1029.73 1029.53 1028.93 1028.33 1027.83 1027.33 1026.70 1025.97 1025.23 1024.26 1023.30 1022.48 1021.39 1020.46 1019.60 1018.69 1018.04 1017.00 1016.02 1014.88 1013.75 1013.43 1012.50 1012.43 1012.34 1012.30 1012.27 1012.32 1012.40 1012.54 1012.59
1029.72 1030.18 1030.52 1030.73 1030.99 1031.06 1030.89 1030.78 1030.85 1030.88 1030.73 1030.59 1030.22 1030.04 1029.43 1028.84 1028.22 1027.72 1027.14 1026.43 1025.70 1024.83 1023.79 1022.92 1022.01 1021.14 1020.23 1019.45 1018.59 1017.77 1017.05 1016.51 1015.52 1014.65 1013.42 1013.01 1012.96 1012.31 1012.47 1012.45 1012.79 1013.05 1013.22
Wind_Speed
6 12 24 24 24 23 24 23 24 24 24 25 25 25 25 24 24 24 23 22 23 25 25 23 21 21 19 19 18 17 15 13 11 12 13 13 13 13 12 8 7 9 10
7 11 22 23 23 23 24 24 24 24 24 25 26 24 25 24 25 25 25 25 24 24 24 23 22 23 21 21 20 19 17 14 14 13 14 14 13 11 12 10 8 8 9
10 11 12 23 22 24 25 24 25 25 25 25 25 28 26 24 24 25 25 25 23 23 23 23 23 21 21 21 21 20 20 13 13 13 11 5 6 13 13 13 12 12 12
9 10 12 21 20 23 26 26 27 27 27 27 27 28 27 25 25 25 25 26 25 24 24 23 23 24 20 21 22 23 21 14 18 15 8 7 7 15 15 17 15 14 14
10 11 11 20 20 22 24 24 26 27 27 28 29 29 28 28 26 27 27 25 25 25 25 25 24 23 24 22 23 23 22 19 19 12 7 7 6 13 18 17 15 15 14
9 11 14 21 23 25 23 23 26 26 27 29 29 29 28 27 28 27 27 27 27 25 25 25 24 24 24 23 23 25 24 22 18 13 8 9 8 16 18 18 15 15 13
8 10 11 22 22 24 25 25 26 27 27 28 29 28 27 27 28 28 27 26 27 27 27 25 25 25 24 25 24 24 25 23 13 13 11 11 10 20 20 19 17 17 16
7 8 9 16 20 22 23 24 26 26 28 28 29 29 28 27 28 28 27 27 27 27 26 26 26 26 26 26 26 25 24 24 17 15 13 10 18 23 22 20 19 18 17
7 9 10 10 13 16 21 22 24 25 27 28 29 29 28 27 28 29 29 28 28 27 27 25 26 26 26 26 24 23 24 26 16 12 13 9 22 27 24 23 20 19 17
8 9 10 9 8 7 8 20 23 24 25 26 27 27 24 23 26 27 27 28 28 28 28 26 26 27 27 26 24 22 23 22 13 13 11 8 25 27 25 24 23 21 19
9 8 8 8 8 7 9 11 14 21 22 22 21 24 18 11 15 20 24 29 30 29 29 27 26 26 27 23 24 21 22 9 12 8 9 21 25 27 26 25 23 22 20
7 7 7 7 7 7 8 9 8 9 8 9 12 13 10 12 13 16 19 26 28 29 28 29 27 23 19 11 9 15 7 13 9 5 9 24 26 25 25 26 24 22 20
3 4 7 9 8 8 6 5 3 3 4 6 11 11 9 9 10 10 9 10 13 20 12 15 16 10 12 10 10 9 10 10 8 5 7 23 25 25 28 28 26 23 21
6 7 8 8 8 8 5 4 4 4 4 6 8 11 9 7 9 10 8 11 12 12 16 13 10 15 11 11 11 10 10 9 8 5 10 10 4 15 26 27 23 24 23
6 6 7 7 8 7 7 5 6 5 5 5 7 11 10 10 10 9 10 10 11 12 14 13 12 13 10 11 9 9 9 10 10 6 5 18 17 17 21 25 24 24 23
5 5 5 7 7 7 7 7 5 4 5 6 6 8 11 9 10 10 10 11 11 11 12 12 13 12 11 9 10 8 8 8 9 8 6 5 17 19 16 22 23 26 25
3 4 6 6 7 8 7 6 5 4 5 5 6 9 11 11 11 11 10 11 12 12 14 13 13 12 12 9 9 7 6 6 7 8 7 6 7 14 22 20 26 25 20
5 6 6 7 7 7 7 6 6 6 5 4 6 7 12 12 12 10 9 10 12 11 10 12 12 11 11 10 8 6 6 5 6 7 7 6 6 6 12 23 23 22 22
6 5 6 6 7 7 7 5 5 7 6 4 5 7 10 11 12 9 9 10 13 11 10 12 12 12 11 11 10 7 4 4 5 5 6 7 8 7 6 14 20 6 20
5 5 6 5 7 6 5 5 4 4 5 5 6 8 11 9 12 10 9 11 11 10 11 12 14 12 11 12 12 8 4 3 3 4 6 5 6 8 8 9 10 10 17
5 7 5 6 6 5 3 4 3 5 5 6 7 10 12 11 11 11 9 11 11 10 11 14 11 16 11 14 8 9 2 2 4 3 4 5 7 7 7 6 7 6 7
5 6 6 6 6 5 3 3 2 3 3 3 7 10 11 12 12 11 11 11 12 10 12 13 14 11 7 11 8 7 2 1 2 4 3 3 5 5 5 7 6 8 8
5 6 6 5 6 5 5 4 4 4 3 5 8 7 9 11 11 12 13 11 11 10 10 12 13 14 11 10 13 5 6 4 3 2 3 3 3 3 3 5 5 7 6
6 6 6 6 5 6 6 4 6 3 4 4 5 6 8 10 11 12 13 12 11 9 11 11 11 11 11 11 9 8 7 9 2 2 0 1 2 3 2 2 4 5 5
7 7 6 6 6 5 6 5 4 4 3 3 5 9 9 9 10 11 13 12 12 10 10 12 12 11 9 8 8 10 10 10 7 5 2 1 2 1 1 2 2 2 3
7 7 6 6 5 6 5 6 6 6 6 6 8 7 8 7 8 10 13 11 11 11 12 11 11 11 10 10 9 9 8 5 7 5 3 2 2 2 1 2 1 1 1
Wind_Direction
331 352 357 354 358 2 5 360 4 3 2 2 3 5 3 3 1 358 358 355 351 348 344 350 349 346 347 336 315 301 280 256 226 206 184 175 161 147 140 159 155 123 134
333 351 354 358 1 6 5 8 9 6 5 0 3 4 3 3 4 1 355 355 351 345 341 347 350 344 340 335 326 315 292 251 221 208 190 176 172 156 150 162 151 150 145
359 355 340 4 5 15 8 10 11 9 11 11 7 5 4 2 5 2 359 354 351 345 345 342 346 343 333 333 327 322 309 262 218 189 176 169 175 170 178 191 170 167 171
356 358 347 7 9 21 14 12 12 12 12 10 8 3 2 3 4 4 0 356 351 348 343 343 342 339 337 332 327 322 315 278 231 192 173 172 175 180 178 171 174 173 172
7 3 355 14 16 18 16 19 13 14 13 11 10 6 3 1 2 1 358 355 352 350 345 342 339 336 328 329 323 318 322 307 217 195 200 182 178 184 180 181 179 175 168
5 3 359 18 22 21 18 17 18 19 15 13 11 6 6 4 0 358 356 352 350 352 346 347 335 338 334 327 321 317 318 315 228 197 196 191 195 186 184 184 171 167 166
5 0 1 20 23 21 18 21 19 18 16 13 9 7 6 2 1 360 355 353 348 350 347 345 342 339 333 327 321 319 317 311 282 194 194 189 193 191 183 177 173 175 179
9 0 356 10 23 26 26 24 23 21 20 17 14 8 5 4 2 358 354 352 348 347 345 345 343 341 337 332 328 325 320 312 298 196 195 201 190 195 184 176 176 181 172
6 10 10 1 9 24 25 27 27 23 21 16 15 11 6 2 0 356 355 348 348 348 344 342 342 341 338 335 331 327 320 314 291 205 192 189 191 193 183 178 174 176 171
17 13 8 2 1 2 21 24 23 21 20 18 13 10 8 5 1 355 351 349 346 345 345 341 342 341 339 337 331 334 326 317 281 208 173 193 190 194 178 176 175 171 165
18 8 359 356 359 4 30 17 13 18 15 12 9 6 3 0 356 358 352 348 347 345 342 341 340 342 340 334 331 337 339 322 323 202 179 174 185 196 175 174 172 169 168
10 354 358 356 355 7 26 17 10 12 4 6 4 359 2 358 356 358 354 348 343 341 340 340 336 338 338 332 328 331 338 330 315 254 181 173 174 189 182 168 166 164 167
340 4 358 6 1 7 4 4 358 358 359 4 3 2 353 354 354 355 349 346 344 338 337 336 328 329 330 332 329 329 336 333 323 341 224 165 180 186 180 165 166 163 171
18 13 6 2 6 6 360 354 354 9 5 8 3 2 2 355 352 354 344 343 347 344 335 332 331 321 324 328 329 330 339 336 332 342 8 16 179 207 193 163 175 169 172
35 16 10 10 8 1 10 357 2 3 6 358 7 5 3 2 354 344 340 345 343 339 343 331 330 331 319 325 325 335 342 342 333 358 5 4 24 7 169 172 166 170 166
54 21 13 23 7 5 7 360 358 354 359 9 4 2 6 3 357 351 341 347 345 339 338 335 329 330 320 323 324 333 337 342 335 17 353 353 21 16 8 174 176 169 170
81 44 28 25 12 10 357 354 357 359 7 6 4 6 8 6 358 349 342 341 346 342 336 339 337 330 334 325 325 326 330 344 341 7 359 4 26 15 21 338 176 171 175
89 62 45 31 15 7 359 354 359 1 2 353 2 9 7 2 357 352 344 340 337 329 335 340 340 335 331 324 321 323 331 343 357 353 6 15 30 18 23 354 178 168 174
111 79 54 37 18 5 353 350 354 3 7 359 1 12 2 358 356 355 347 341 338 336 338 346 341 343 331 342 325 313 322 346 0 352 15 3 22 26 17 3 35 73 170
108 85 67 42 21 4 352 341 0 7 359 360 6 11 1 357 355 353 349 347 342 336 342 343 346 342 345 340 325 309 308 332 355 10 12 6 25 23 25 14 13 30 53
94 80 68 54 16 23 354 347 357 2 5 8 6 8 5 357 355 353 352 346 344 340 337 348 337 347 356 347 330 337 248 314 42 21 22 9 20 26 26 13 23 9 35
117 95 84 63 39 22 3 342 2 330 339 354 5 6 359 354 356 356 349 343 340 337 341 345 345 347 348 353 339 297 331 36 48 21 25 28 28 17 13 30 29 28 28
121 116 95 74 62 40 20 3 357 356 346 3 3 355 348 350 354 356 350 344 338 341 340 341 348 350 341 353 353 348 339 342 333 42 15 12 27 49 18 355 37 36 37
140 115 99 78 59 55 28 35 37 18 10 346 353 336 342 350 353 355 351 346 338 336 343 338 340 346 342 349 347 350 325 304 346 317 130 34 15 41 25 360 29 27 26
135 129 110 93 69 56 53 48 45 27 7 327 358 348 346 346 353 353 352 345 340 340 338 339 338 343 350 336 350 341 344 334 14 310 305 5 10 354 78 41 38 22 36
133 123 121 107 78 62 62 51 46 38 11 10 6 351 344 342 344 349 349 345 338 338 341 337 332 337 347 348 347 350 347 341 326 321 321 345 329 17 353 106 102 107 59